Temperature
18 19 19 19 19 19 19 19 19 19 19 19 19 19 19 19 19 19 19 19 19 19 19 19 19 19 19 19 18 18 18 18 18 18 18 18 18 18 18 18 18 18 18
19 19 19 19 19 19 19 19 19 19 19 19 19 19 19 19 19 19 19 19 19 19 19 19 19 19 18 18 18 18 18 18 18 18 18 18 18 18 18 18 18 18 18
19 19 19 19 19 19 19 19 19 19 19 19 19 19 19 19 19 19 19 19 19 19 19 19 19 19 18 18 18 18 18 18 18 18 18 18 18 18 18 18 18 18 18
19 19 19 19 19 19 19 19 19 19 19 19 19 19 19 19 19 19 19 19 19 19 19 19 19 19 18 18 18 18 18 18 18 18 18 18 18 18 18 18 18 18 17
19 19 19 19 19 19 19 19 19 19 19 19 19 19 19 19 19 19 19 19 19 19 19 19 19 18 18 18 18 18 18 18 18 18 18 18 18 18 18 18 18 18 17
19 19 19 19 19 19 19 19 19 19 19 19 19 19 19 19 19 19 19 19 19 19 19 19 19 19 18 18 18 18 18 18 18 18 18 18 18 18 18 18 18 18 18
19 19 19 19 19 19 19 19 19 19 19 19 19 19 19 19 19 19 19 19 19 19 19 19 19 19 18 18 18 18 18 18 18 18 18 18 18 18 18 18 18 18 18
20 19 19 19 19 19 19 19 19 19 19 19 19 19 19 19 19 19 19 19 19 19 19 19 19 18 18 18 18 18 18 18 18 18 18 18 18 18 18 18 18 18 18
20 20 19 19 19 19 19 19 19 19 19 19 19 19 19 18 19 19 19 19 19 19 19 19 18 18 18 18 18 18 18 18 18 18 18 18 18 18 18 18 18 18 18
20 20 19 19 19 20 19 19 19 19 19 19 19 19 19 19 19 19 19 19 19 19 19 18 18 19 18 18 18 18 18 18 18 18 18 18 18 18 18 18 18 18 18
19 19 19 19 20 20 19 19 19 19 19 19 19 19 19 19 19 19 19 19 19 18 18 18 18 18 18 18 18 18 18 18 18 18 18 18 18 18 18 18 18 18 18
19 19 19 19 19 19 19 19 19 19 19 19 19 19 19 19 19 19 19 19 18 18 18 18 18 18 18 18 18 18 18 18 18 18 18 18 18 18 18 18 18 18 18
20 19 19 19 19 19 19 19 19 19 19 19 19 19 19 19 19 19 19 19 18 18 18 18 18 18 18 18 18 18 18 18 18 18 18 18 18 18 18 18 18 18 18
20 20 19 19 19 19 19 19 19 19 19 19 19 19 19 19 19 19 19 19 19 18 18 18 18 18 18 19 19 18 18 18 18 18 18 18 18 18 18 18 18 18 18
20 20 20 20 19 19 19 19 19 19 19 19 19 19 19 19 19 19 19 19 18 19 19 18 18 18 19 18 18 18 18 18 18 18 18 18 18 18 18 18 18 18 18
20 20 20 20 20 19 19 19 19 19 19 19 19 19 19 19 19 19 19 18 18 18 18 18 19 19 18 18 19 19 19 19 18 18 18 18 18 18 18 18 18 18 18
21 20 20 20 20 19 19 19 19 19 19 19 19 19 19 19 19 19 19 19 18 18 18 18 18 19 19 19 19 19 19 19 19 18 18 18 18 18 18 18 18 18 18
21 20 20 20 20 20 19 19 19 19 19 19 19 19 19 19 19 19 19 19 19 19 19 19 19 19 19 19 19 19 19 19 19 19 19 18 18 18 18 18 18 18 18
21 21 20 20 20 20 20 19 19 19 19 19 19 19 19 19 19 19 19 19 19 19 19 19 19 19 19 19 19 19 19 19 19 19 19 19 18 18 18 18 18 18 18
21 21 20 20 20 20 20 19 19 19 19 19 19 19 19 19 19 19 19 19 19 19 19 19 19 19 19 19 19 19 19 19 19 19 19 19 19 19 18 18 18 18 18
21 21 20 20 20 20 20 20 19 19 19 19 19 19 19 19 19 19 19 19 19 19 19 19 19 19 19 19 19 19 19 19 19 19 19 19 19 19 19 19 18 18 18
21 21 21 20 20 20 20 20 20 19 19 19 19 19 19 19 19 19 19 19 19 19 19 19 19 19 19 18 18 19 19 19 19 19 19 19 19 19 19 19 19 18 18
21 21 21 20 20 20 20 20 19 19 19 19 19 19 19 19 19 19 19 19 19 19 19 19 19 19 19 18 18 18 18 18 19 19 19 19 19 19 19 19 19 19 18
22 21 21 21 20 20 20 20 20 20 19 19 19 19 19 19 19 19 19 19 19 19 19 19 19 18 18 18 18 18 18 18 18 18 19 19 19 19 19 19 19 18 18
22 21 21 21 20 20 20 20 20 20 20 19 19 19 19 19 19 19 19 19 19 19 19 19 19 18 18 18 18 18 18 18 18 18 18 19 19 19 19 19 19 18 18
22 21 21 21 21 20 20 20 20 20 19 19 19 19 19 19 19 19 19 19 19 19 19 19 19 19 18 18 18 18 18 18 18 18 18 18 18 19 19 19 19 18 18
Wind_Speed
5 11 18 18 19 19 19 20 20 20 21 21 21 21 20 20 19 18 17 17 16 15 15 14 14 14 14 14 14 14 14 14 14 15 15 15 14 14 13 14 14 13 15
9 14 18 18 18 19 19 19 20 19 20 20 20 19 19 18 17 17 16 16 15 14 14 13 13 13 13 13 13 13 13 13 13 13 13 13 13 12 12 13 13 12 14
11 15 18 18 18 18 18 19 19 19 18 18 18 18 17 17 16 16 15 15 14 13 13 12 12 12 12 11 11 11 11 11 11 12 11 10 11 12 13 13 13 14 13
13 15 17 18 18 18 18 18 18 18 18 17 17 17 16 16 15 15 14 13 13 12 12 11 11 10 10 9 10 9 9 9 9 9 8 8 9 11 13 13 13 13 13
12 15 18 19 18 18 18 18 17 17 17 16 16 15 15 14 14 13 13 12 11 11 11 10 9 9 8 8 7 7 7 7 7 7 7 7 9 11 12 13 12 12 12
11 14 17 18 18 18 17 17 17 17 16 15 15 14 14 13 12 12 12 11 10 10 9 9 8 8 7 6 5 5 4 4 5 5 7 9 10 12 12 12 12 12 11
10 13 16 18 17 17 17 17 16 16 15 14 14 13 12 12 11 11 10 10 10 9 8 8 7 6 5 5 4 3 3 3 5 6 7 9 11 12 12 12 12 11 11
11 12 15 17 17 16 16 15 15 15 14 13 13 12 12 11 10 9 9 9 8 8 7 6 6 5 3 3 2 2 2 4 5 7 8 10 12 13 13 12 11 11 11
11 11 11 13 14 15 15 15 14 14 13 12 12 11 11 10 9 8 8 8 7 7 6 5 4 4 2 1 0 1 2 4 5 6 7 9 12 13 13 12 12 11 11
8 8 9 11 11 12 12 14 14 13 13 12 11 11 10 9 9 8 7 7 6 6 5 5 4 3 2 2 1 1 1 4 4 6 7 10 13 14 13 13 12 12 11
9 7 7 8 9 10 10 12 13 13 12 12 10 10 9 7 7 7 6 6 6 5 5 5 4 3 3 3 3 2 1 3 4 5 8 11 14 14 14 13 12 12 11
10 8 7 7 8 9 9 10 9 9 9 9 8 8 8 7 7 6 6 6 6 6 5 5 5 5 4 4 4 3 3 5 5 6 8 12 14 15 14 13 12 12 11
11 10 9 8 8 8 6 8 7 6 7 8 8 9 8 6 6 5 4 5 5 6 5 5 5 5 5 5 5 4 4 6 6 7 9 13 15 15 14 14 13 12 12
10 10 9 8 7 7 7 7 7 6 6 6 7 9 8 4 4 4 4 4 4 5 4 4 4 5 6 6 5 4 5 6 7 8 11 14 16 16 15 14 14 13 12
10 10 9 8 8 7 6 5 6 5 6 6 7 8 9 6 4 4 3 4 5 5 4 4 4 4 4 4 3 3 4 6 8 9 10 14 15 15 15 15 14 13 13
10 10 9 9 7 7 5 4 5 6 7 7 6 8 9 8 5 4 3 3 4 6 6 5 4 3 2 1 2 2 4 6 7 9 10 12 15 16 16 15 14 14 13
10 10 9 9 7 6 5 4 5 6 7 6 6 7 8 8 6 4 3 2 4 5 5 3 2 2 1 1 2 3 3 4 6 8 10 10 12 15 16 16 15 15 14
10 10 9 9 8 6 5 4 4 5 6 6 6 6 7 7 6 4 2 2 3 3 2 1 1 1 1 1 2 2 2 2 4 7 8 9 10 10 14 17 17 16 15
11 11 9 8 8 7 5 4 4 4 4 5 6 6 7 7 7 4 2 2 2 1 1 1 0 1 1 2 3 3 2 2 3 4 5 8 10 11 12 14 17 17 16
11 10 9 8 8 6 4 2 2 2 2 3 4 6 7 6 6 4 2 2 1 1 0 1 1 1 1 2 3 3 3 3 2 2 4 6 8 11 13 12 13 14 16
10 9 9 8 7 6 4 3 3 2 2 2 3 6 7 6 6 4 2 2 1 1 1 2 1 1 1 1 1 2 3 3 2 3 3 3 5 9 11 12 12 12 12
12 10 9 9 8 7 5 4 3 3 2 2 3 4 7 7 6 5 4 3 2 1 1 1 1 0 1 0 1 1 3 4 3 3 3 3 4 5 6 10 11 12 12
13 13 11 9 8 7 6 3 2 1 0 0 2 3 4 7 6 5 4 3 3 3 2 2 2 2 1 2 1 2 1 2 3 3 3 3 3 3 4 6 9 10 12
13 12 10 10 8 7 7 5 5 4 4 4 4 3 4 5 6 6 5 4 3 3 3 3 3 2 2 1 1 1 3 3 2 3 4 3 3 3 4 4 5 7 10
12 11 10 9 8 8 7 7 6 5 4 3 3 4 4 4 5 5 5 4 4 3 4 4 3 3 3 3 2 1 1 1 2 2 3 4 4 3 3 3 3 4 7
11 10 10 9 8 8 8 8 8 7 6 4 4 4 4 3 3 4 4 4 4 4 4 4 4 3 3 3 2 2 2 2 2 2 3 3 4 4 3 2 2 4 5
Wind_Direction
138 133 123 119 115 112 110 107 105 104 102 101 101 101 101 102 103 104 106 106 106 106 105 107 106 105 105 106 107 108 108 109 110 112 114 114 114 113 113 114 112 111 114
143 137 127 123 121 118 114 111 108 106 105 103 104 104 104 103 103 105 106 106 106 105 104 105 108 108 107 108 110 110 111 111 111 113 114 116 116 115 115 119 115 116 116
137 134 129 127 124 121 118 115 113 111 109 106 106 106 106 106 106 106 108 108 108 108 107 107 108 110 110 110 111 113 114 113 113 113 111 108 115 120 121 122 120 119 118
135 133 133 131 129 125 121 118 117 115 113 111 109 109 109 109 109 109 111 112 111 110 111 110 110 111 111 110 111 113 113 113 120 119 115 117 124 128 128 126 126 125 125
133 134 137 135 133 129 126 123 121 119 118 117 115 113 112 112 113 113 115 115 113 113 114 114 114 112 111 109 109 110 109 106 116 122 127 129 134 137 135 133 132 132 132
133 138 140 139 137 134 130 128 126 124 123 122 120 118 118 118 118 118 119 121 119 117 117 117 116 112 111 110 107 104 103 103 115 122 135 140 142 143 140 138 137 138 138
138 141 143 142 140 137 135 133 131 130 128 127 126 125 124 123 122 122 124 125 125 123 120 120 119 121 118 112 101 84 84 95 122 141 146 148 150 150 145 143 142 143 143
141 143 145 145 144 142 140 139 138 137 135 134 133 131 130 131 130 130 130 132 134 135 135 133 131 132 127 116 91 61 70 102 120 136 148 154 156 153 151 149 148 149 151
138 141 146 149 149 149 148 148 146 144 144 144 144 142 141 141 142 142 144 147 150 152 152 153 153 159 168 179 357 20 77 116 131 150 156 161 163 160 157 155 155 155 157
138 144 150 151 151 154 156 157 156 156 154 154 155 153 154 155 156 158 159 162 165 169 172 178 183 196 213 233 265 316 97 125 148 159 163 168 169 167 165 164 164 164 164
148 154 154 154 157 159 163 166 165 165 165 164 165 165 166 169 173 173 174 178 184 190 198 203 211 222 241 252 255 256 228 164 167 166 170 176 175 173 172 170 171 172 174
162 168 166 165 168 170 171 164 167 169 174 177 181 178 178 183 189 186 193 200 207 214 222 228 238 248 262 266 266 258 210 183 183 181 183 183 182 180 179 178 180 181 183
167 171 173 172 174 173 165 159 173 178 181 189 193 188 181 184 191 193 202 211 228 236 241 249 260 260 262 261 260 238 203 195 198 198 192 189 188 187 186 186 188 191 192
164 170 173 172 170 168 162 167 176 178 185 189 189 187 180 176 181 194 198 209 226 234 233 240 252 258 262 264 251 222 203 196 203 200 196 195 193 193 194 195 197 199 200
162 167 170 166 163 161 158 167 172 180 184 187 190 189 184 178 185 193 204 212 227 231 225 229 243 257 262 259 243 210 203 198 199 197 198 200 199 199 202 204 205 205 207
167 167 166 163 163 159 159 165 172 176 179 184 194 192 188 184 185 186 198 212 227 228 227 225 230 238 244 233 246 228 212 203 198 203 204 205 205 204 208 210 210 212 213
166 164 164 165 162 160 159 166 167 174 173 182 195 195 186 179 178 181 193 213 227 226 222 218 242 246 259 251 266 253 219 209 197 204 206 207 211 211 212 214 216 217 217
160 160 168 169 164 165 159 157 161 167 172 184 196 188 178 179 183 182 190 226 237 225 197 185 230 259 286 276 271 266 236 223 213 208 204 206 211 215 218 220 220 220 222
164 164 169 166 165 171 166 162 159 160 174 187 193 188 185 183 186 183 200 232 237 215 203 235 169 198 246 270 267 267 260 237 232 226 211 208 213 217 219 221 221 222 224
166 165 165 161 167 164 157 145 131 150 184 191 196 201 201 200 193 185 207 238 226 174 224 253 232 242 236 253 282 296 285 268 245 239 232 221 219 221 220 219 220 226 230
166 165 165 161 168 161 158 162 161 187 200 202 203 202 205 206 201 192 200 218 200 185 216 225 214 309 301 289 359 326 318 304 274 245 240 234 229 226 220 220 219 221 226
171 173 172 173 173 174 175 173 171 173 193 201 210 208 208 204 203 201 192 206 203 189 229 232 161 337 304 334 132 44 343 334 318 274 258 235 239 238 223 222 220 219 219
177 180 182 183 177 177 172 155 147 110 58 246 222 217 216 202 201 200 194 196 203 185 205 223 200 182 243 288 165 146 153 259 297 308 292 270 255 235 232 225 221 222 220
183 181 179 178 174 174 169 168 177 189 203 218 212 213 225 214 211 206 197 194 200 195 207 221 197 191 184 249 280 215 196 188 206 301 309 297 277 242 234 232 223 217 219
178 178 178 175 178 178 178 182 188 203 214 217 211 212 225 233 228 216 199 192 201 203 208 213 210 203 193 200 219 234 238 224 191 195 281 306 313 284 251 230 217 212 210
176 179 178 176 184 185 184 187 193 199 204 204 212 216 224 233 239 233 213 201 206 208 210 212 210 210 210 206 211 205 194 214 229 206 239 272 286 287 278 249 214 207 209
Height
1536 1537 1538 1538 1539 1540 1541 1542 1543 1544 1545 1546 1547 1548 1549 1550 1550 1551 1552 1553 1553 1554 1554 1555 1555 1556 1557 1557 1558 1558 1559 1560 1560 1561 1561 1561 1562 1562 1563 1563 1563 1563 1564
1536 1538 1539 1540 1541 1543 1543 1545 1546 1547 1547 1548 1549 1550 1551 1552 1552 1553 1554 1555 1555 1556 1556 1556 1557 1557 1558 1559 1559 1560 1561 1561 1562 1562 1562 1563 1563 1564 1564 1564 1565 1565 1565
1537 1539 1541 1542 1543 1544 1545 1547 1548 1548 1549 1550 1551 1552 1553 1554 1554 1555 1556 1556 1557 1557 1558 1558 1559 1559 1560 1560 1561 1561 1562 1563 1563 1563 1564 1564 1565 1565 1565 1566 1566 1566 1566
1538 1540 1542 1543 1545 1546 1547 1548 1549 1550 1551 1552 1553 1554 1555 1555 1556 1557 1557 1558 1558 1559 1559 1560 1560 1561 1561 1562 1562 1563 1563 1564 1564 1565 1565 1565 1566 1566 1566 1567 1567 1567 1568
1540 1541 1543 1545 1546 1547 1548 1550 1551 1552 1553 1554 1555 1555 1556 1557 1558 1558 1559 1559 1560 1560 1561 1561 1562 1562 1563 1563 1564 1564 1565 1565 1566 1566 1566 1566 1566 1567 1567 1568 1568 1568 1569
1541 1543 1544 1546 1547 1549 1550 1551 1552 1553 1554 1556 1556 1557 1558 1558 1559 1560 1560 1561 1561 1562 1562 1562 1563 1563 1564 1564 1565 1565 1566 1566 1566 1567 1567 1567 1567 1567 1568 1568 1568 1569 1569
1541 1543 1545 1547 1548 1550 1551 1552 1554 1555 1556 1557 1558 1558 1559 1560 1560 1561 1562 1562 1563 1563 1563 1564 1564 1564 1565 1566 1566 1566 1567 1567 1567 1567 1567 1568 1568 1568 1568 1569 1569 1569 1570
1542 1544 1546 1548 1550 1551 1553 1554 1555 1556 1557 1558 1559 1560 1560 1561 1562 1562 1563 1563 1564 1564 1565 1565 1565 1566 1566 1567 1567 1567 1567 1567 1567 1568 1568 1568 1568 1568 1569 1569 1569 1570 1570
1544 1545 1547 1549 1551 1552 1553 1555 1556 1557 1558 1559 1560 1561 1562 1562 1563 1564 1564 1565 1565 1565 1566 1566 1566 1567 1567 1568 1568 1568 1568 1568 1568 1568 1568 1568 1569 1569 1569 1570 1570 1570 1571
1545 1547 1548 1550 1552 1553 1554 1555 1557 1558 1559 1560 1561 1562 1563 1563 1564 1565 1565 1566 1566 1566 1567 1567 1567 1568 1568 1568 1569 1569 1569 1569 1569 1569 1569 1569 1569 1569 1570 1570 1570 1571 1571
1546 1548 1549 1551 1552 1554 1555 1556 1557 1559 1560 1561 1562 1563 1564 1565 1565 1566 1566 1567 1567 1567 1567 1568 1568 1568 1569 1569 1569 1569 1569 1569 1569 1569 1569 1569 1569 1570 1570 1570 1570 1571 1571
1547 1549 1550 1552 1553 1554 1555 1557 1558 1559 1561 1562 1563 1564 1565 1566 1566 1567 1567 1567 1568 1568 1568 1568 1568 1569 1569 1569 1569 1569 1569 1569 1569 1569 1569 1569 1569 1570 1570 1570 1570 1570 1571
1547 1549 1550 1552 1553 1555 1556 1557 1558 1560 1561 1563 1564 1565 1565 1566 1567 1568 1568 1568 1568 1568 1569 1569 1569 1569 1569 1569 1569 1569 1569 1569 1569 1569 1569 1569 1569 1569 1570 1570 1570 1570 1570
1547 1549 1551 1552 1553 1555 1556 1557 1559 1560 1562 1563 1564 1565 1566 1566 1567 1568 1568 1569 1569 1569 1569 1569 1569 1569 1569 1569 1569 1569 1569 1569 1569 1569 1569 1569 1569 1569 1569 1569 1570 1570 1570
1547 1549 1551 1552 1553 1555 1556 1558 1559 1561 1562 1564 1565 1565 1566 1567 1568 1568 1569 1569 1569 1569 1569 1569 1569 1569 1569 1569 1569 1569 1568 1568 1568 1568 1568 1568 1568 1568 1568 1569 1569 1569 1569
1547 1549 1551 1552 1554 1556 1557 1558 1560 1561 1562 1564 1565 1565 1566 1567 1568 1568 1569 1569 1569 1569 1569 1569 1569 1569 1569 1569 1569 1568 1568 1567 1567 1567 1567 1567 1567 1567 1567 1568 1568 1568 1568
1547 1549 1551 1553 1554 1556 1557 1559 1560 1561 1562 1563 1564 1565 1566 1567 1568 1568 1568 1568 1569 1569 1568 1569 1569 1569 1568 1568 1568 1568 1567 1567 1566 1566 1566 1566 1566 1566 1566 1567 1567 1567 1567
1547 1548 1550 1552 1554 1556 1557 1559 1560 1561 1562 1563 1564 1565 1565 1566 1567 1567 1567 1568 1568 1568 1568 1568 1568 1568 1568 1567 1567 1566 1566 1565 1565 1565 1565 1565 1565 1565 1565 1565 1566 1565 1565
1546 1548 1550 1552 1554 1555 1557 1558 1559 1560 1562 1562 1563 1564 1565 1566 1566 1567 1567 1567 1567 1567 1567 1567 1567 1567 1567 1566 1565 1565 1564 1563 1563 1563 1563 1563 1563 1564 1564 1564 1564 1563 1564
1545 1547 1549 1551 1553 1555 1556 1558 1559 1560 1561 1562 1562 1563 1564 1565 1565 1565 1566 1566 1566 1566 1566 1566 1566 1566 1566 1565 1564 1563 1563 1562 1562 1561 1562 1562 1562 1562 1562 1562 1562 1562 1562
1544 1546 1548 1550 1552 1554 1555 1556 1558 1559 1560 1561 1561 1562 1563 1564 1564 1564 1564 1565 1565 1565 1565 1565 1565 1565 1564 1564 1563 1562 1561 1561 1560 1560 1560 1560 1560 1561 1561 1561 1560 1560 1560
1541 1544 1546 1548 1550 1552 1554 1556 1557 1558 1559 1560 1561 1561 1562 1562 1563 1563 1563 1563 1564 1564 1564 1564 1564 1563 1563 1562 1562 1560 1560 1560 1559 1558 1559 1559 1559 1559 1559 1559 1559 1558 1558
1539 1542 1544 1546 1548 1550 1552 1554 1556 1557 1558 1558 1559 1560 1561 1561 1562 1562 1562 1562 1562 1562 1562 1562 1562 1562 1561 1561 1561 1561 1559 1558 1558 1557 1557 1557 1557 1557 1557 1556 1556 1556 1556
1537 1540 1542 1545 1546 1549 1551 1552 1553 1554 1555 1556 1557 1558 1559 1560 1560 1561 1561 1561 1561 1561 1561 1560 1560 1560 1560 1560 1559 1559 1559 1558 1557 1556 1556 1555 1555 1555 1554 1554 1554 1554 1554
1535 1538 1540 1543 1545 1547 1548 1550 1551 1552 1553 1555 1556 1556 1557 1558 1559 1559 1559 1559 1559 1559 1559 1559 1558 1558 1558 1558 1558 1558 1557 1557 1556 1555 1553 1553 1553 1552 1552 1551 1551 1551 1551
1533 1536 1538 1540 1542 1544 1546 1547 1549 1550 1551 1552 1553 1554 1555 1555 1556 1557 1557 1557 1556 1556 1556 1556 1556 1556 1556 1556 1556 1556 1555 1555 1554 1553 1552 1551 1550 1550 1549 1549 1549 1549 1549